[[{"header":{"parameterUnit":"m.s-1","parameterCategory":1,"la1":30.2992,"la2":30.254,"lo1":-89.0895,"lo2":-89.0443,"dy":0.0025,"dx":0.0025,"nx":19,"ny":19,"refTime":"2026-05-19T09:00:00:Z","depth":0,"parameterNumber":2,"parameterNumberName":"U-component_of_WINDS"},"data":[0,0,0,-2.3685,-2.3685,-2.3654,-2.3653,-2.3634,-2.3634,0,0,0,0,0,0,0,0,0,0,0,-2.3707,-2.3707,-2.3685,-2.3685,-2.3654,-2.3653,-2.3634,-2.3634,0,0,0,0,0,0,0,0,0,0,0,-2.3707,-2.3707,-2.3707,-2.3685,-2.3654,-2.3653,-2.3634,-2.365,0,0,0,0,0,0,0,0,0,0,-2.3676,-2.3709,-2.3707,-2.3708,-2.3684,-2.3654,-2.3653,-2.365,-2.3649,-2.3657,0,-2.3668,0,-2.3651,-2.3634,-2.3634,0,0,0,-2.3675,-2.371,-2.3691,-2.3708,-2.3684,-2.3654,-2.3665,-2.3649,-2.3648,-2.3655,-2.3667,-2.3666,-2.365,-2.3634,-2.3634,-2.3714,-2.3715,0,0,-2.3676,-2.3708,-2.3692,-2.3691,-2.3697,-2.3666,-2.3664,-2.3648,-2.3663,-2.3667,-2.3665,-2.365,-2.3634,-2.3634,-2.3714,-2.3715,0,0,0,-2.3688,-2.3709,-2.369,-2.3692,-2.3685,-2.3665,-2.3663,-2.3664,-2.3655,-2.3665,-2.365,-2.3634,-2.3634,-2.3713,-2.3714,-2.3786,0,0,0,-2.3689,-2.3716,-2.3691,-2.371,-2.3686,-2.3674,-2.368,-2.3656,-2.3653,-2.365,-2.3634,-2.3634,-2.3712,-2.3713,-2.3782,-2.3814,0,0,0,-2.3704,-2.3718,-2.3718,-2.3712,-2.37,-2.3674,-2.3663,-2.3654,-2.3645,-2.3634,-2.3634,-2.3711,-2.3713,-2.3778,-2.3808,-2.3844,0,0,0,-2.373,-2.3781,-2.372,-2.3771,-2.37,-2.3719,-2.3663,-2.3675,-2.3675,-2.3634,-2.3712,-2.3714,-2.3777,-2.3804,-2.3841,-2.388,-2.39,0,0,-2.3812,-2.3792,-2.382,-2.3764,-2.3802,-2.3721,-2.3769,-2.3739,-2.3708,-2.3714,-2.3715,-2.3783,-2.3807,-2.3843,-2.4,-2.4016,0,0,0,-2.3857,-2.3877,-2.388,-2.3882,-2.3861,-2.3846,-2.3805,-2.3794,-2.3797,-2.3718,-2.3805,-2.3819,-2.3839,-2.3856,-2.3869,-2.3884,-2.3723,-2.3723,-2.3723,-2.4016,-2.3976,-2.402,-2.3977,-2.398,-2.3938,-2.3936,-2.3914,-2.3872,-2.3893,-2.3894,-2.3994,-2.4016,-2.4025,-2.4042,-2.3913,-2.3913,-2.3913,-2.3913,-2.4131,-2.4154,-2.4099,-2.4121,-2.4079,-2.4097,-2.406,-2.403,-2.404,-2.399,-2.4005,-2.3952,-2.4044,-2.4056,-2.3918,-2.3917,-2.3917,-2.3916,-2.3916,-2.423,-2.4234,-2.4221,-2.4221,-2.4225,-2.418,-2.4193,-2.4154,-2.4117,-2.4133,-2.4129,-2.4128,-2.4121,-2.4134,-2.4135,-2.4135,-2.4135,-2.4136,-2.4136,-2.4338,-2.4321,-2.4337,-2.4321,-2.4318,-2.4309,-2.4269,-2.4265,-2.4249,-2.422,-2.422,-2.4176,-2.4061,-2.4033,-2.4141,-2.414,-2.4139,-2.4139,-2.4138,-2.4468,-2.4433,-2.4458,-2.4455,-2.4434,-2.4441,-2.4392,-2.4387,-2.4377,-2.4385,-2.4339,-2.4261,-2.4237,-2.4226,-2.4202,-2.4347,-2.4347,-2.4347,-2.4347,-2.4551,-2.4536,-2.4554,-2.4552,-2.4546,-2.4504,-2.4534,-2.4505,-2.4468,-2.446,-2.4434,-2.4399,-2.439,-2.4372,-2.4357,-2.4334,-2.451,-2.451,-2.4511,-2.4629,-2.4612,-2.4645,-2.461,-2.459,-2.4575,-2.4602,-2.4602,-2.4553,-2.4516,-2.4453,-2.4446,-2.439,-2.4374,-2.4334,-2.4313,-2.427,0,0]},{"header":{"parameterUnit":"m.s-1","parameterCategory":1,"la1":30.2992,"la2":30.254,"lo1":-89.0895,"lo2":-89.0443,"dy":0.0025,"dx":0.0025,"nx":19,"ny":19,"refTime":"2026-05-19T09:00:00:Z","depth":0,"parameterNumber":3,"parameterNumberName":"V-component_of_WINDS"},"data":[0,0,0,2.9065,2.9064,2.9072,2.9072,2.9066,2.9066,0,0,0,0,0,0,0,0,0,0,0,2.9054,2.9054,2.9065,2.9064,2.9072,2.9072,2.9066,2.9066,0,0,0,0,0,0,0,0,0,0,0,2.9055,2.9054,2.9054,2.9064,2.9072,2.9072,2.9066,2.9066,0,0,0,0,0,0,0,0,0,0,2.9061,2.9044,2.9054,2.9054,2.9064,2.9072,2.9072,2.9066,2.9066,2.9057,0,2.9048,0,2.9057,2.9065,2.9065,0,0,0,2.907,2.9044,2.9054,2.9054,2.9064,2.9072,2.907,2.9066,2.9066,2.9056,2.9048,2.9048,2.9057,2.9065,2.9064,2.8999,2.8998,0,0,2.9069,2.9051,2.9054,2.9053,2.9053,2.907,2.907,2.9066,2.9055,2.9048,2.9048,2.9057,2.9064,2.9064,2.8999,2.8999,0,0,0,2.9065,2.905,2.906,2.9053,2.9056,2.907,2.907,2.9055,2.906,2.9048,2.9057,2.9064,2.9064,2.9,2.8999,2.8954,0,0,0,2.9065,2.9048,2.906,2.9048,2.9056,2.9056,2.9059,2.906,2.906,2.9057,2.9064,2.9064,2.9001,2.8999,2.8957,2.8936,0,0,0,2.9057,2.9047,2.9045,2.9047,2.905,2.9056,2.9061,2.9061,2.9065,2.9065,2.9064,2.9001,2.9,2.8959,2.894,2.8914,0,0,0,2.9042,2.9004,2.9044,2.9005,2.905,2.9029,2.9061,2.9046,2.904,2.9064,2.9001,2.8999,2.896,2.8942,2.8916,2.8889,2.8876,0,0,2.8983,2.8996,2.8975,2.9011,2.8979,2.9029,2.899,2.9001,2.9017,2.9003,2.9002,2.8956,2.894,2.8915,2.8809,2.8799,0,0,0,2.895,2.8934,2.8929,2.8924,2.8933,2.8939,2.8959,2.8963,2.8954,2.9007,2.894,2.8931,2.8917,2.8905,2.8896,2.8885,2.8993,2.8993,2.8993,2.8839,2.8864,2.883,2.8856,2.885,2.8872,2.8869,2.8879,2.8903,2.8887,2.8883,2.8817,2.8802,2.8795,2.8784,2.8871,2.8871,2.8871,2.8871,2.8756,2.8738,2.8774,2.8754,2.878,2.8763,2.8783,2.8801,2.8789,2.8821,2.881,2.8844,2.8783,2.8774,2.8867,2.8868,2.8868,2.8869,2.8869,2.8686,2.8682,2.869,2.8686,2.868,2.8707,2.8694,2.8718,2.8739,2.8728,2.8727,2.8728,2.8732,2.8726,2.8726,2.8726,2.8725,2.8725,2.8725,2.8611,2.8621,2.8609,2.8617,2.8617,2.8621,2.8643,2.8644,2.8651,2.8669,2.8669,2.8695,2.8773,2.8792,2.8722,2.8722,2.8723,2.8723,2.8723,2.8518,2.8543,2.8523,2.8524,2.8536,2.8529,2.856,2.856,2.8564,2.8557,2.8586,2.864,2.8654,2.8661,2.8677,2.8581,2.8581,2.8581,2.8581,2.8459,2.8469,2.8456,2.8455,2.8458,2.8484,2.8461,2.8478,2.85,2.8504,2.8521,2.8545,2.8551,2.8561,2.8571,2.8586,2.8469,2.8469,2.8468,2.8403,2.8415,2.8391,2.8415,2.8426,2.8435,2.8414,2.8412,2.8441,2.8464,2.8508,2.8512,2.855,2.8561,2.8584,2.8598,2.8627,0,0]}]]